| time (UTC) | temp F | wind direction | speed MPH | gust MPH | rain 1hr in | rain 24hr in | rain mn in | humidity % | barometer mb |
| 20260901101526 | 67 | 209 | 0.0 | 0.0 | 0.00 | 0.04 | 0.04 | 94 | 1017.1 |
| 20260901100031 | 67 | 209 | 0.0 | 0.0 | 0.00 | 0.04 | 0.04 | 94 | 1017.4 |
| 20260901094531 | 67 | 209 | 0.0 | 0.0 | 0.00 | 0.04 | 0.04 | 94 | 1017.2 |
| 20260901093015 | 67 | 209 | 0.0 | 0.0 | 0.02 | 0.04 | 0.04 | 93 | 1017.4 |
| 20260901091524 | 67 | 209 | 0.0 | 0.0 | 0.03 | 0.04 | 0.04 | 93 | 1017.6 |
| 20260901090029 | 67 | 209 | 0.0 | 0.0 | 0.03 | 0.04 | 0.04 | 93 | 1017.3 |
| 20260901084532 | 67 | 209 | 0.0 | 0.0 | 0.03 | 0.04 | 0.04 | 93 | 1017.7 |
| 20260901083034 | 67 | 209 | 0.0 | 0.0 | 0.02 | 0.02 | 0.02 | 93 | 1018.0 |
| 20260901081518 | 67 | 209 | 0.0 | 0.0 | 0.01 | 0.01 | 0.01 | 93 | 1017.9 |
| 20260901080036 | 67 | 209 | 0.0 | 0.0 | 0.01 | 0.01 | 0.01 | 93 | 1018.1 |
| 20260901074531 | 67 | 209 | 0.0 | 0.0 | 0.01 | 0.01 | 0.01 | 92 | 1018.1 |
| 20260901073032 | 67 | 209 | 0.0 | 0.0 | 0.00 | 0.00 | 0.00 | 92 | 1018.3 |
| 20260901071535 | 67 | 209 | 0.0 | 0.0 | 0.00 | 0.00 | 0.00 | 92 | 1018.3 |
| 20260901070024 | 67 | 209 | 0.0 | 0.0 | 0.00 | 0.00 | 0.00 | 92 | 1018.4 |
| 20260901064526 | 67 | 209 | 0.0 | 0.0 | 0.00 | 0.00 | 0.00 | 92 | 1018.6 |
| 20260901063046 | 67 | 209 | 0.0 | 0.0 | 0.00 | 0.00 | 0.00 | 92 | 1018.6 |
| 20260901061535 | 67 | 209 | 0.0 | 0.0 | 0.00 | 0.00 | 0.00 | 92 | 1018.6 |
| 20260901060033 | 67 | 209 | 0.0 | 0.0 | 0.00 | 0.00 | 0.00 | 91 | 1018.7 |
| 20260901054527 | 67 | 209 | 0.0 | 0.0 | 0.00 | 0.00 | 0.00 | 91 | 1018.9 |
| 20260901053029 | 67 | 209 | 0.0 | 0.0 | 0.00 | 0.00 | 0.00 | 91 | 1019.0 |
| 20260901051508 | 67 | 209 | 0.0 | 0.0 | 0.00 | 0.00 | 0.00 | 91 | 1019.1 |
| 20260901050014 | 67 | 209 | 0.0 | 0.0 | 0.00 | 0.00 | 0.00 | 91 | 1019.1 |
| 20260901044530 | 67 | 209 | 0.0 | 0.0 | 0.00 | 0.00 | 0.00 | 90 | 1019.3 |
| 20260901043025 | 68 | 209 | 0.0 | 0.0 | 0.00 | 0.00 | 0.00 | 90 | 1019.4 |
| 20260901041504 | 67 | 209 | 0.0 | 0.0 | 0.00 | 0.00 | 0.00 | 90 | 1019.4 |
| 20260901040010 | 67 | 209 | 0.0 | 0.0 | 0.00 | 0.00 | 0.00 | 90 | 1019.4 |
| 20260901034532 | 68 | 209 | 0.0 | 0.0 | 0.00 | 0.00 | 0.00 | 90 | 1019.3 |
| 20260901033027 | 68 | 209 | 0.0 | 0.0 | 0.00 | 0.00 | 0.00 | 90 | 1019.4 |
| 20260901031535 | 68 | 209 | 0.0 | 0.0 | 0.00 | 0.00 | 0.00 | 90 | 1019.4 |
| 20260901030030 | 68 | 209 | 0.0 | 0.0 | 0.00 | 0.00 | 0.00 | 89 | 1019.6 |
| 20260901024511 | 68 | 209 | 0.0 | 0.0 | 0.00 | 0.00 | 0.00 | 89 | 1019.7 |
| 20260901023017 | 68 | 209 | 0.0 | 0.0 | 0.00 | 0.00 | 0.00 | 89 | 1019.7 |
| 20260901021528 | 68 | 209 | 0.0 | 0.0 | 0.00 | 0.01 | 0.00 | 89 | 1019.6 |
| 20260901020030 | 68 | 209 | 0.0 | 0.0 | 0.00 | 0.02 | 0.00 | 88 | 1019.6 |
| 20260901014533 | 68 | 209 | 0.0 | 0.0 | 0.00 | 0.02 | 0.00 | 87 | 1019.7 |
| 20260901013014 | 68 | 212 | 0.0 | 0.0 | 0.00 | 0.02 | 0.00 | 87 | 1019.8 |
| 20260901011518 | 68 | 213 | 0.0 | 0.0 | 0.00 | 0.02 | 0.00 | 87 | 1020.0 |
| 20260901010036 | 68 | 211 | 0.0 | 0.0 | 0.00 | 0.02 | 0.00 | 87 | 1020.0 |
| 20260901004534 | 68 | 212 | 0.0 | 0.0 | 0.00 | 0.02 | 0.00 | 87 | 1019.8 |
| 20260901003031 | 68 | 212 | 0.0 | 0.0 | 0.00 | 0.02 | 0.00 | 87 | 1019.7 |
| 20260901001517 | 68 | 212 | 0.0 | 0.0 | 0.00 | 0.02 | 0.00 | 87 | 1019.8 |
| 20260901000032 | 68 | 211 | 0.0 | 0.0 | 0.00 | 0.02 | 0.00 | 87 | 1019.8 |
| 20260831234529 | 68 | 211 | 0.0 | 0.0 | 0.00 | 0.02 | 0.00 | 87 | 1019.9 |
| 20260831233031 | 69 | 212 | 0.0 | 0.0 | 0.00 | 0.02 | 0.00 | 86 | 1019.9 |
| 20260831231532 | 69 | 212 | 0.0 | 0.0 | 0.00 | 0.02 | 0.00 | 84 | 1020.1 |
| 20260831230014 | 70 | 212 | 0.0 | 0.0 | 0.00 | 0.02 | 0.00 | 83 | 1020.3 |
| 20260831224523 | 70 | 212 | 0.0 | 0.0 | 0.00 | 0.02 | 0.00 | 81 | 1020.3 |
| 20260831223027 | 70 | 211 | 0.0 | 0.0 | 0.00 | 0.02 | 0.00 | 79 | 1020.2 |
| 20260831221528 | 70 | 212 | 0.0 | 0.0 | 0.00 | 0.02 | 0.00 | 77 | 1020.2 |
| 20260831220033 | 70 | 212 | 0.0 | 0.0 | 0.00 | 0.02 | 0.00 | 76 | 1020.2 |
| 20260831214522 | 70 | 212 | 0.0 | 0.0 | 0.00 | 0.02 | 0.00 | 75 | 1020.1 |
| 20260831213025 | 70 | 212 | 0.0 | 0.0 | 0.00 | 0.02 | 0.00 | 76 | 1020.1 |
| 20260831211532 | 71 | 211 | 0.0 | 0.0 | 0.00 | 0.02 | 0.00 | 74 | 1020.2 |
| 20260831210037 | 71 | 212 | 0.0 | 0.0 | 0.00 | 0.02 | 0.00 | 74 | 1020.2 |
| 20260831204533 | 72 | 212 | 0.0 | 0.0 | 0.00 | 0.02 | 0.00 | 71 | 1020.2 |
| 20260831203018 | 73 | 212 | 0.0 | 0.0 | 0.00 | 0.02 | 0.00 | 71 | 1020.1 |
| 20260831201525 | 73 | 212 | 0.0 | 0.0 | 0.00 | 0.02 | 0.00 | 70 | 1020.1 |
| 20260831200006 | 74 | 244 | 0.0 | 0.0 | 0.00 | 0.02 | 0.00 | 69 | 1020.1 |
| 20260831194509 | 75 | 207 | 0.0 | 0.0 | 0.00 | 0.02 | 0.00 | 69 | 1020.3 |
| 20260831193028 | 73 | 207 | 0.0 | 0.0 | 0.00 | 0.02 | 0.00 | 68 | 1020.7 |
| 20260831191525 | 74 | 223 | 0.0 | 0.0 | 0.00 | 0.02 | 0.00 | 72 | 1020.8 |
| 20260831190029 | 75 | 232 | 0.0 | 0.0 | 0.00 | 0.02 | 0.00 | 75 | 1020.9 |
| 20260831184509 | 75 | 232 | 0.0 | 0.0 | 0.00 | 0.02 | 0.00 | 72 | 1021.0 |
| 20260831183014 | 75 | 232 | 0.0 | 0.0 | 0.00 | 0.02 | 0.00 | 72 | 1020.9 |
| 20260831181525 | 74 | 232 | 0.0 | 0.0 | 0.00 | 0.02 | 0.00 | 71 | 1020.9 |
| 20260831180035 | 75 | 232 | 0.0 | 0.0 | 0.00 | 0.02 | 0.00 | 72 | 1021.3 |
| 20260831174529 | 75 | 232 | 0.0 | 0.0 | 0.00 | 0.02 | 0.00 | 71 | 1021.5 |
| 20260831173015 | 76 | 232 | 0.0 | 0.0 | 0.00 | 0.02 | 0.00 | 68 | 1021.5 |
| 20260831171515 | 76 | 232 | 0.0 | 0.0 | 0.00 | 0.02 | 0.00 | 67 | 1021.3 |
| 20260831170017 | 77 | 232 | 0.0 | 0.0 | 0.00 | 0.02 | 0.00 | 64 | 1021.5 |
| 20260831164524 | 77 | 232 | 0.0 | 0.0 | 0.00 | 0.02 | 0.00 | 64 | 1021.6 |
| 20260831163028 | 77 | 233 | 0.0 | 0.0 | 0.00 | 0.02 | 0.00 | 65 | 1021.7 |
| 20260831161517 | 76 | 234 | 0.0 | 0.0 | 0.00 | 0.02 | 0.00 | 67 | 1021.6 |
| 20260831160019 | 76 | 249 | 0.0 | 0.0 | 0.00 | 0.02 | 0.00 | 64 | 1021.8 |
| 20260831154557 | 75 | 249 | 0.0 | 0.0 | 0.00 | 0.02 | 0.00 | 69 | 1021.8 |
| 20260831153026 | 75 | 249 | 0.0 | 0.0 | 0.00 | 0.02 | 0.00 | 70 | 1021.9 |
| 20260831151531 | 74 | 250 | 0.0 | 0.0 | 0.00 | 0.02 | 0.00 | 69 | 1021.9 |
| 20260831150010 | 73 | 249 | 0.0 | 0.0 | 0.00 | 0.02 | 0.00 | 72 | 1021.8 |
| 20260831144516 | 71 | 249 | 0.0 | 0.0 | 0.00 | 0.02 | 0.00 | 75 | 1021.8 |
| 20260831143024 | 70 | 342 | 0.0 | 0.0 | 0.00 | 0.02 | 0.00 | 77 | 1021.8 |
| 20260831141532 | 70 | 340 | 0.0 | 0.0 | 0.00 | 0.02 | 0.00 | 78 | 1021.8 |
| 20260831140034 | 70 | 53 | 0.0 | 0.0 | 0.00 | 0.02 | 0.00 | 81 | 1021.5 |
| 20260831134516 | 69 | 360 | 0.0 | 0.0 | 0.00 | 0.02 | 0.00 | 82 | 1021.6 |
| 20260831133020 | 68 | 360 | 0.0 | 0.0 | 0.00 | 0.02 | 0.00 | 84 | 1021.5 |
| 20260831131549 | 67 | 14 | 0.0 | 0.0 | 0.00 | 0.02 | 0.00 | 85 | 1021.5 |
| 20260831130040 | 67 | 15 | 0.0 | 0.0 | 0.00 | 0.02 | 0.00 | 87 | 1021.7 |
| 20260831124538 | 66 | 15 | 0.0 | 0.0 | 0.00 | 0.02 | 0.00 | 88 | 1021.6 |
| 20260831123021 | 65 | 16 | 0.0 | 0.0 | 0.00 | 0.02 | 0.00 | 89 | 1021.7 |
| 20260831121528 | 65 | 15 | 0.0 | 0.0 | 0.00 | 0.02 | 0.00 | 90 | 1021.6 |
| 20260831120028 | 64 | 16 | 0.0 | 0.0 | 0.00 | 0.02 | 0.00 | 91 | 1021.4 |
| 20260831114530 | 63 | 16 | 0.0 | 0.0 | 0.00 | 0.02 | 0.00 | 92 | 1021.4 |
| 20260831113042 | 63 | 15 | 0.0 | 0.0 | 0.00 | 0.02 | 0.00 | 92 | 1021.2 |
| 20260831111518 | 63 | 15 | 0.0 | 0.0 | 0.00 | 0.02 | 0.00 | 92 | 1021.1 |
| 20260831110003 | 63 | 15 | 0.0 | 0.0 | 0.00 | 0.02 | 0.00 | 92 | 1020.8 |
| 20260831104519 | 63 | 15 | 0.0 | 0.0 | 0.00 | 0.02 | 0.00 | 92 | 1020.7 |
| 20260831103013 | 63 | 15 | 0.0 | 0.0 | 0.00 | 0.02 | 0.00 | 91 | 1020.5 |